Location: hvezdarna zebrak
(49.8744°N, 13.8989°E)
Time: 15:02:52
(UTC+01:00)

Tiangong - Visible Passes

Search period start: 11 March 2026 00:00
Search period end: 21 March 2026 00:00
Orbit: 381 x 390 km, 41.5° (Epoch: 11 March)

Date Brightness Start Highest point End Pass type
(mag) Time Alt. Az. Time Alt. Az. Time Alt. Az.
13 Mar 0.6 05:23:32 10° S 05:24:54 12° SSE 05:26:16 10° SE visible
15 Mar 0.3 05:00:44 11° SSW 05:02:22 15° SSE 05:04:20 10° SE visible
16 Mar 0.7 04:03:53 11° SE 04:03:53 11° SE 04:04:23 10° SE visible
16 Mar 0.0 05:36:51 10° SW 05:39:09 18° S 05:41:26 10° SE visible
17 Mar -0.1 04:39:10 17° S 04:39:40 17° S 04:41:52 10° SE visible
18 Mar -0.1 05:14:23 11° SW 05:16:20 18° S 05:18:34 10° SE visible
19 Mar 0.0 04:17:23 17° SSE 04:17:23 17° SSE 04:19:02 10° SE visible
20 Mar -0.1 04:52:33 15° SSW 04:53:18 16° S 04:55:19 10° SSE visible
